GW6391 Weather Reports


Display with metric or nautical units.
time (UTC)temp
F
wind
direction
speed
MPH
gust
MPH
rain 1hr
in
rain 24hr
in
rain mn
in
humidity
%
barometer
mb
20260906223103 67 279 11.0 15.0 0.00 0.00 0.00 71 1016.0
20260906222515 67 286 11.0 15.0 0.00 0.00 0.00 70 1016.0
20260906222015 68 302 11.0 15.0 0.00 0.00 0.00 70 1016.1
20260906221551 68 296 11.0 15.0 0.00 0.00 0.00 70 1016.1
20260906221017 68 278 7.0 13.0 0.00 0.00 0.00 69 1016.2
20260906220517 68 317 7.0 10.0 0.00 0.00 0.00 69 1016.2
20260906220054 68 311 3.0 8.0 0.00 0.00 0.00 69 1016.2
20260906215519 68 307 3.0 8.0 0.00 0.00 0.00 69 1016.1
20260906215023 68 360 4.0 8.0 0.00 0.00 0.00 69 1016.1
20260906214555 68 360 1.0 6.0 0.00 0.00 0.00 69 1016.1
20260906214025 68 302 3.0 6.0 0.00 0.00 0.00 69 1016.0
20260906213518 68 360 4.0 8.0 0.00 0.00 0.00 69 1016.1
20260906213107 68 333 4.0 8.0 0.00 0.00 0.00 68 1016.1
20260906212518 69 343 1.0 5.0 0.00 0.00 0.00 68 1016.1
20260906212019 69 306 1.0 8.0 0.00 0.00 0.00 68 1016.2
20260906211619 69 320 4.0 8.0 0.00 0.00 0.00 68 1016.2
20260906211029 68 280 4.0 6.0 0.00 0.00 0.00 69 1016.2
20260906210520 68 61 2.0 8.0 0.00 0.00 0.00 69 1016.3
20260906210057 68 22 2.0 8.0 0.00 0.00 0.00 69 1016.5
20260906205519 68 302 3.0 6.0 0.00 0.00 0.00 69 1016.5
20260906205018 68 336 2.0 6.0 0.00 0.00 0.00 69 1016.4
20260906204601 68 36 1.0 9.0 0.00 0.00 0.00 69 1016.5
20260906204020 68 341 2.0 9.0 0.00 0.00 0.00 68 1016.4
20260906203521 68 323 3.0 9.0 0.00 0.00 0.00 69 1016.4
20260906203113 68 346 4.0 9.0 0.00 0.00 0.00 69 1016.5
20260906202520 68 51 4.0 11.0 0.00 0.00 0.00 68 1016.6
20260906202018 68 25 3.0 15.0 0.00 0.00 0.00 68 1016.5
20260906201604 68 82 9.0 15.0 0.00 0.00 0.00 68 1016.3
20260906201023 68 46 6.0 14.0 0.00 0.00 0.00 68 1016.3
20260906200523 68 59 9.0 14.0 0.00 0.00 0.00 68 1016.2
20260906200103 68 34 8.0 14.0 0.00 0.00 0.00 67 1016.2
20260906195518 67 41 9.0 16.0 0.00 0.00 0.00 69 1016.3
20260906195019 67 24 9.0 16.0 0.00 0.00 0.00 70 1016.3
20260906194618 67 28 8.0 16.0 0.00 0.00 0.00 70 1016.5
20260906194022 67 360 9.0 16.0 0.00 0.00 0.00 70 1016.4
20260906193517 66 342 11.0 17.0 0.00 0.00 0.00 70 1016.6
20260906193112 67 322 10.0 17.0 0.00 0.00 0.00 70 1016.7
20260906192520 66 352 12.0 17.0 0.00 0.00 0.00 71 1016.5
20260906192020 66 22 13.0 17.0 0.00 0.00 0.00 71 1016.5
20260906191556 66 349 12.0 17.0 0.00 0.00 0.00 72 1016.6
20260906191016 65 352 12.0 17.0 0.00 0.00 0.00 72 1016.8
20260906190518 64 360 11.0 16.0 0.00 0.00 0.00 74 1017.1
20260906190100 64 360 14.0 19.0 0.00 0.00 0.00 74 1017.3
20260906185526 63 360 14.0 20.0 0.00 0.00 0.00 76 1017.1
20260906185024 62 360 15.0 20.0 0.00 0.00 0.00 76 1017.3
20260906184600 62 360 14.0 20.0 0.00 0.00 0.00 77 1017.5
20260906184024 61 360 14.0 20.0 0.00 0.00 0.00 78 1017.6
20260906183521 61 360 16.0 20.0 0.00 0.00 0.00 78 1017.6
20260906183102 61 360 15.0 21.0 0.00 0.00 0.00 79 1017.8
20260906182526 61 360 16.0 21.0 0.00 0.00 0.00 78 1018.0
20260906182021 60 360 15.0 22.0 0.00 0.00 0.00 79 1018.0
20260906181636 60 360 17.0 23.0 0.00 0.00 0.00 79 1018.0
20260906181017 61 360 17.0 23.0 0.00 0.00 0.00 79 1018.2
20260906180524 60 311 17.0 21.0 0.00 0.00 0.00 81 1018.2
20260906180105 60 312 16.0 20.0 0.00 0.00 0.00 81 1018.2
20260906175525 59 311 12.0 20.0 0.00 0.00 0.00 83 1018.4
20260906175026 59 286 14.0 20.0 0.00 0.00 0.00 84 1018.4
20260906174605 58 301 13.0 20.0 0.00 0.00 0.00 86 1018.3
20260906174021 58 360 15.0 21.0 0.00 0.00 0.00 87 1018.4
20260906173524 58 300 13.0 21.0 0.00 0.00 0.00 88 1018.3
20260906173104 57 319 14.0 20.0 0.00 0.00 0.00 88 1018.4
20260906172519 57 298 15.0 20.0 0.00 0.00 0.00 89 1018.5
20260906172025 57 321 14.0 19.0 0.00 0.00 0.00 89 1018.5
20260906171610 57 303 11.0 17.0 0.00 0.00 0.00 89 1018.6
20260906171025 57 298 13.0 17.0 0.00 0.00 0.00 88 1018.8
20260906170521 57 305 11.0 17.0 0.00 0.00 0.00 88 1018.8
20260906170111 57 360 10.0 14.0 0.00 0.00 0.00 88 1018.7
20260906165522 57 360 9.0 16.0 0.00 0.00 0.00 86 1018.6
20260906165029 58 287 13.0 19.0 0.00 0.00 0.00 85 1018.7
20260906164607 59 278 11.0 19.0 0.00 0.00 0.00 83 1019.0
20260906164017 60 360 13.0 18.0 0.00 0.00 0.00 82 1018.8
20260906163519 61 360 10.0 15.0 0.00 0.00 0.00 81 1019.1
20260906163111 61 310 11.0 14.0 0.00 0.00 0.00 81 1019.1
20260906162516 61 294 10.0 13.0 0.00 0.00 0.00 80 1019.1
20260906162017 61 300 9.0 12.0 0.00 0.00 0.00 80 1019.1
20260906161611 61 313 7.0 10.0 0.00 0.00 0.00 80 1019.2
20260906161024 61 339 6.0 10.0 0.00 0.00 0.00 80 1019.1
20260906160521 61 352 6.0 10.0 0.00 0.00 0.00 80 1018.9
20260906160059 61 316 4.0 8.0 0.00 0.00 0.00 81 1019.1
20260906155515 61 325 4.0 9.0 0.00 0.00 0.00 81 1019.2
20260906155015 61 11 6.0 9.0 0.00 0.00 0.00 81 1019.0
20260906154608 61 10 7.0 9.0 0.00 0.00 0.00 81 1018.8
20260906154023 61 360 6.0 9.0 0.00 0.00 0.00 81 1018.9
20260906153519 61 360 3.0 8.0 0.00 0.00 0.00 81 1019.1
20260906153101 61 360 4.0 8.0 0.00 0.00 0.00 81 1019.2
20260906152526 61 360 4.0 10.0 0.00 0.00 0.00 81 1019.1
20260906152017 61 360 6.0 10.0 0.00 0.00 0.00 81 1018.9
20260906151606 61 360 5.0 11.0 0.00 0.00 0.00 82 1019.0
20260906151023 61 360 7.0 11.0 0.00 0.00 0.00 81 1018.9
20260906150521 61 360 7.0 11.0 0.00 0.00 0.00 82 1018.8
20260906150108 60 360 9.0 11.0 0.00 0.00 0.00 81 1019.1
20260906145519 61 360 7.0 12.0 0.00 0.00 0.00 81 1019.2
20260906145027 61 360 9.0 12.0 0.00 0.00 0.00 81 1019.1
20260906144607 61 360 8.0 12.0 0.00 0.00 0.00 81 1019.0
20260906144018 60 360 8.0 11.0 0.00 0.00 0.00 82 1019.2
20260906143519 60 360 9.0 11.0 0.00 0.00 0.00 82 1019.2
20260906143110 60 360 6.0 10.0 0.00 0.00 0.00 83 1019.3
20260906142524 60 360 8.0 10.0 0.00 0.00 0.00 83 1019.5
20260906142021 60 16 5.0 8.0 0.00 0.00 0.00 83 1019.5
20260906141557 59 33 4.0 7.0 0.00 0.00 0.00 84 1019.3
20260906141017 59 29 4.0 7.0 0.00 0.00 0.00 84 1019.2
20260906140517 59 47 2.0 4.0 0.00 0.00 0.00 84 1019.3
20260906140103 59 351 1.0 2.0 0.00 0.00 0.00 84 1019.3
20260906135518 59 351 0.0 3.0 0.00 0.00 0.00 84 1019.3
20260906135020 59 351 1.0 4.0 0.00 0.00 0.00 84 1019.2
20260906134619 59 351 3.0 8.0 0.00 0.00 0.00 84 1019.0
20260906134019 58 323 4.0 8.0 0.00 0.00 0.00 84 1018.9
20260906133521 58 331 4.0 8.0 0.00 0.00 0.00 84 1019.0
20260906133119 58 316 3.0 7.0 0.00 0.00 0.00 85 1019.1
20260906132519 58 311 3.0 7.0 0.00 0.00 0.00 85 1019.3
20260906132021 58 313 2.0 4.0 0.00 0.00 0.00 85 1019.2
20260906131556 58 344 1.0 5.0 0.00 0.00 0.00 85 1019.0
20260906131017 58 338 2.0 5.0 0.00 0.00 0.00 85 1019.1
20260906130520 58 279 4.0 6.0 0.00 0.00 0.00 85 1019.1
20260906130107 58 335 4.0 8.0 0.00 0.00 0.00 85 1019.0
20260906125523 58 340 5.0 10.0 0.00 0.00 0.00 85 1018.8
20260906125020 58 329 6.0 9.0 0.00 0.00 0.00 86 1018.9
20260906124542 58 319 5.0 9.0 0.00 0.00 0.00 86 1019.1
20260906124016 58 315 6.0 10.0 0.00 0.00 0.00 86 1019.1
20260906123519 57 320 7.0 10.0 0.00 0.00 0.00 87 1019.1
20260906123059 57 319 6.0 10.0 0.00 0.00 0.00 88 1019.2
20260906122519 57 298 6.0 9.0 0.00 0.00 0.00 88 1019.2
20260906122024 56 302 6.0 9.0 0.00 0.00 0.00 89 1019.1
20260906121605 56 299 5.0 7.0 0.00 0.00 0.00 89 1019.3
20260906121023 55 314 4.0 6.0 0.00 0.00 0.00 89 1019.2
20260906120519 55 319 3.0 6.0 0.00 0.00 0.00 89 1019.2
20260906120107 55 313 4.0 8.0 0.00 0.00 0.00 88 1019.1
20260906115521 55 319 5.0 10.0 0.00 0.00 0.00 88 1019.1
20260906115017 55 311 6.0 10.0 0.00 0.00 0.00 88 1019.1
20260906114604 55 302 7.0 10.0 0.00 0.00 0.00 88 1019.1
20260906114021 55 300 7.0 10.0 0.00 0.00 0.00 89 1019.2
20260906113521 55 304 7.0 11.0 0.00 0.00 0.00 89 1019.2
20260906113101 55 303 7.0 13.0 0.00 0.00 0.00 89 1019.2
20260906112523 55 313 7.0 13.0 0.00 0.00 0.00 88 1019.1
20260906112025 55 308 9.0 12.0 0.00 0.00 0.00 88 1019.0
20260906111559 55 300 9.0 12.0 0.00 0.00 0.00 88 1019.3
20260906111019 55 315 8.0 12.0 0.00 0.00 0.00 88 1019.3
20260906110519 56 315 8.0 12.0 0.00 0.00 0.00 88 1019.3
20260906110059 56 310 8.0 11.0 0.00 0.00 0.00 87 1019.5
20260906105523 56 317 7.0 14.0 0.00 0.00 0.00 87 1019.5
20260906105025 56 297 9.0 14.0 0.00 0.00 0.00 86 1019.3
20260906104603 56 306 10.0 14.0 0.00 0.00 0.00 86 1019.3
20260906104023 57 310 10.0 16.0 0.00 0.00 0.00 86 1019.4
20260906103524 57 329 11.0 16.0 0.00 0.00 0.00 86 1019.5
20260906103102 57 314 12.0 16.0 0.00 0.00 0.00 86 1019.3
20260906102524 57 323 10.0 15.0 0.00 0.00 0.00 86 1019.3
20260906102024 57 317 11.0 17.0 0.00 0.00 0.00 86 1019.5
20260906101600 56 301 11.0 17.0 0.00 0.00 0.00 86 1019.5
20260906101019 56 317 11.0 15.0 0.00 0.00 0.00 86 1019.5
20260906100524 56 312 11.0 16.0 0.00 0.00 0.00 86 1019.5
20260906100105 56 323 14.0 17.0 0.00 0.00 0.00 87 1019.6
20260906095529 56 306 13.0 17.0 0.00 0.00 0.00 87 1019.6
20260906095017 56 292 11.0 16.0 0.00 0.00 0.00 87 1019.5
20260906094556 55 298 12.0 16.0 0.00 0.00 0.00 87 1019.5
20260906094021 55 306 11.0 16.0 0.00 0.00 0.00 88 1019.6
20260906093516 55 302 12.0 16.0 0.00 0.00 0.00 88 1019.6
20260906093049 55 294 11.0 16.0 0.00 0.00 0.00 88 1019.6
20260906092517 55 296 12.0 16.0 0.00 0.00 0.00 87 1019.6
20260906092017 55 294 11.0 15.0 0.00 0.00 0.00 87 1019.6
20260906091537 55 309 11.0 17.0 0.00 0.00 0.00 87 1019.6
20260906091016 55 309 11.0 17.0 0.00 0.00 0.00 87 1019.7
20260906090515 55 303 12.0 16.0 0.00 0.00 0.00 87 1019.6
20260906090038 55 309 13.0 16.0 0.00 0.00 0.00 87 1019.8
20260906085520 55 290 11.0 15.0 0.00 0.00 0.00 86 1019.8
20260906085017 55 299 11.0 15.0 0.00 0.00 0.00 86 1019.8
20260906084540 55 300 10.0 14.0 0.00 0.00 0.00 86 1019.8
20260906084021 55 306 9.0 14.0 0.00 0.00 0.00 86 1019.8
20260906083518 55 292 11.0 13.0 0.00 0.00 0.00 86 1019.7
20260906083045 55 322 10.0 13.0 0.00 0.00 0.00 86 1019.7
20260906082517 55 317 10.0 14.0 0.00 0.00 0.00 85 1019.6
20260906082019 55 298 10.0 14.0 0.00 0.00 0.00 85 1019.7
20260906081540 55 315 11.0 16.0 0.00 0.00 0.00 85 1019.9
20260906081017 55 322 11.0 16.0 0.00 0.00 0.00 85 1019.9
20260906080518 55 304 11.0 15.0 0.00 0.00 0.00 85 1020.0
20260906080043 55 306 12.0 15.0 0.00 0.00 0.00 85 1020.1
20260906075517 55 313 11.0 15.0 0.00 0.00 0.00 84 1020.1
20260906075017 55 316 11.0 18.0 0.00 0.00 0.00 84 1020.2
20260906074536 55 304 13.0 18.0 0.00 0.00 0.00 83 1020.3
20260906074018 55 309 12.0 16.0 0.00 0.00 0.00 83 1020.4
20260906073518 56 323 12.0 17.0 0.00 0.00 0.00 82 1020.7
20260906073034 56 311 13.0 17.0 0.00 0.00 0.00 82 1020.6
20260906072515 56 309 13.0 16.0 0.00 0.00 0.00 82 1020.8
20260906072015 56 306 11.0 16.0 0.00 0.00 0.00 82 1020.9
20260906071540 56 311 12.0 16.0 0.00 0.00 0.00 81 1021.0
20260906071018 56 310 11.0 15.0 0.00 0.00 0.00 81 1021.0
20260906070521 57 323 11.0 15.0 0.00 0.00 0.00 80 1021.0
20260906070044 57 320 11.0 14.0 0.00 0.00 0.00 80 1020.9
20260906065518 57 297 10.0 17.0 0.00 0.00 0.00 79 1021.1
20260906065018 58 323 10.0 17.0 0.00 0.00 0.00 79 1021.1
20260906064538 58 323 10.0 13.0 0.00 0.00 0.00 79 1021.0
20260906064019 58 325 9.0 14.0 0.00 0.00 0.00 79 1021.1
20260906063517 58 319 7.0 13.0 0.00 0.00 0.00 79 1021.2
20260906063040 58 321 10.0 14.0 0.00 0.00 0.00 79 1021.1
20260906062518 58 326 10.0 14.0 0.00 0.00 0.00 80 1021.1
20260906062017 58 314 10.0 13.0 0.00 0.00 0.00 80 1021.1
20260906061536 58 328 8.0 13.0 0.00 0.00 0.00 79 1021.1
20260906061015 58 317 10.0 13.0 0.00 0.00 0.00 80 1021.1
20260906060523 57 312 8.0 12.0 0.00 0.00 0.00 79 1021.1
20260906060047 57 309 7.0 12.0 0.00 0.00 0.00 79 1021.3
20260906055520 58 320 9.0 12.0 0.00 0.00 0.00 79 1021.3
20260906055016 57 320 9.0 12.0 0.00 0.00 0.00 79 1021.2
20260906054548 57 319 8.0 11.0 0.00 0.00 0.00 79 1021.2
20260906054021 57 313 8.0 11.0 0.00 0.00 0.00 79 1021.1
20260906053519 57 312 8.0 11.0 0.00 0.00 0.00 79 1021.1
20260906053041 57 325 7.0 10.0 0.00 0.00 0.00 78 1021.3
20260906052519 57 300 7.0 10.0 0.00 0.00 0.00 78 1021.3
20260906052019 57 312 8.0 10.0 0.00 0.00 0.00 78 1021.2
20260906051555 58 309 6.0 11.0 0.00 0.00 0.00 78 1020.8
20260906051018 58 321 7.0 11.0 0.00 0.00 0.00 78 1020.7
20260906050520 58 360 8.0 11.0 0.00 0.00 0.00 77 1020.5
20260906050042 58 360 9.0 13.0 0.00 0.00 0.00 77 1020.6
20260906045518 58 360 9.0 15.0 0.00 0.00 0.00 77 1020.5
20260906045015 58 360 10.0 15.0 0.00 0.00 0.00 77 1020.5
20260906044538 58 360 11.0 16.0 0.00 0.00 0.00 77 1020.3
20260906044019 58 360 11.0 16.0 0.00 0.00 0.00 76 1020.3
20260906043517 58 360 12.0 16.0 0.00 0.00 0.00 76 1020.4
20260906043044 58 360 11.0 16.0 0.00 0.00 0.00 76 1020.5
20260906042518 58 360 12.0 16.0 0.00 0.00 0.00 76 1020.4
20260906042018 58 360 11.0 15.0 0.00 0.00 0.00 76 1020.5
20260906041550 59 360 11.0 16.0 0.00 0.00 0.00 76 1020.6
20260906041018 59 360 12.0 16.0 0.00 0.00 0.00 76 1020.8
20260906040515 59 360 12.0 16.0 0.00 0.00 0.00 75 1020.8
20260906040101 59 302 11.0 16.0 0.00 0.00 0.00 75 1020.7
20260906035520 59 360 12.0 15.0 0.00 0.00 0.00 75 1020.4
20260906035018 59 360 11.0 14.0 0.00 0.00 0.00 74 1020.0
20260906034547 59 360 10.0 14.0 0.00 0.00 0.00 74 1019.9
20260906034018 59 360 10.0 15.0 0.00 0.00 0.00 74 1019.9
20260906033516 60 312 10.0 15.0 0.00 0.00 0.00 73 1019.7
20260906033056 60 315 11.0 15.0 0.00 0.00 0.00 73 1019.6
20260906032516 60 313 10.0 18.0 0.00 0.00 0.00 73 1019.7
20260906032016 60 320 14.0 18.0 0.00 0.00 0.00 73 1019.4
20260906031546 60 360 13.0 17.0 0.00 0.00 0.00 72 1019.5
20260906031016 60 360 10.0 18.0 0.00 0.00 0.00 71 1019.5
20260906030518 61 360 12.0 20.0 0.00 0.00 0.00 71 1019.4
20260906030050 61 360 13.0 20.0 0.00 0.00 0.00 71 1019.3
20260906025520 61 360 13.0 18.0 0.00 0.00 0.00 70 1019.3
20260906025022 61 360 14.0 18.0 0.00 0.00 0.00 70 1019.3
20260906024601 61 360 12.0 19.0 0.00 0.00 0.00 69 1019.3
20260906024019 61 360 14.0 19.0 0.00 0.00 0.00 69 1019.2
20260906023520 61 360 14.0 19.0 0.00 0.00 0.00 68 1019.2
20260906023039 62 360 14.0 21.0 0.00 0.00 0.00 68 1019.1
20260906022522 62 360 14.0 21.0 0.00 0.00 0.00 68 1019.0
20260906022019 62 360 14.0 21.0 0.00 0.00 0.00 68 1019.0
20260906021547 62 360 14.0 19.0 0.00 0.00 0.00 68 1019.2
20260906021017 62 360 13.0 19.0 0.00 0.00 0.00 67 1019.1
20260906020517 62 360 14.0 19.0 0.00 0.00 0.00 67 1019.2
20260906020046 63 360 13.0 19.0 0.00 0.00 0.00 67 1019.1
20260906015516 63 360 14.0 19.0 0.00 0.00 0.00 67 1019.1
20260906015016 63 360 15.0 20.0 0.00 0.00 0.00 66 1019.1
20260906014604 63 360 14.0 22.0 0.00 0.00 0.00 66 1019.1
20260906014017 64 360 16.0 22.0 0.00 0.00 0.00 65 1019.1
20260906013518 64 360 12.0 17.0 0.00 0.00 0.00 65 1019.0
20260906013058 64 360 12.0 19.0 0.00 0.00 0.00 64 1019.1
20260906012522 64 360 14.0 21.0 0.00 0.00 0.00 64 1019.2
20260906012015 64 360 11.0 21.0 0.00 0.00 0.00 63 1019.3
20260906011549 65 360 15.0 21.0 0.00 0.00 0.00 61 1019.1
20260906011018 65 360 15.0 21.0 0.00 0.00 0.00 61 1019.2
20260906010519 66 360 14.0 20.0 0.00 0.00 0.00 60 1019.2
20260906010051 66 360 15.0 19.0 0.00 0.00 0.00 59 1019.1
20260906005516 66 311 15.0 19.0 0.00 0.00 0.00 59 1019.2
20260906005018 67 307 14.0 21.0 0.00 0.00 0.00 57 1019.1
20260906004606 67 311 14.0 21.0 0.00 0.00 0.00 55 1018.8
20260906004017 68 360 16.0 21.0 0.00 0.00 0.00 51 1018.7
20260906003521 69 360 15.0 21.0 0.00 0.00 0.00 48 1018.7
20260906003101 70 307 14.0 20.0 0.00 0.00 0.00 45 1019.2
20260906002515 71 312 14.0 20.0 0.00 0.00 0.00 44 1019.1
20260906002019 72 360 15.0 21.0 0.00 0.00 0.00 44 1018.8
20260906001551 72 360 14.0 19.0 0.00 0.00 0.00 43 1018.9
20260906001019 73 307 14.0 20.0 0.00 0.00 0.00 43 1019.0
20260906000517 73 321 15.0 20.0 0.00 0.00 0.00 43 1019.0
20260906000046 74 286 16.0 21.0 0.00 0.00 0.00 42 1018.9
20260905235519 74 292 15.0 21.0 0.00 0.00 0.00 39 1019.0
20260905235020 75 319 10.0 15.0 0.00 0.00 0.00 36 1019.1
20260905234558 75 313 11.0 16.0 0.00 0.00 0.00 36 1019.0
20260905234018 75 328 9.0 13.0 0.00 0.00 0.00 35 1019.0
20260905233523 76 333 9.0 15.0 0.00 0.00 0.00 35 1019.0
20260905233034 76 292 11.0 15.0 0.00 0.00 0.00 35 1019.0
20260905232517 76 317 10.0 16.0 0.00 0.00 0.00 35 1018.9
20260905232021 76 295 10.0 16.0 0.00 0.00 0.00 35 1018.8
20260905231550 76 321 10.0 16.0 0.00 0.00 0.00 35 1018.7
20260905231018 76 342 11.0 16.0 0.00 0.00 0.00 35 1018.7
20260905230519 76 272 11.0 16.0 0.00 0.00 0.00 35 1018.7
20260905230108 76 294 10.0 15.0 0.00 0.00 0.00 34 1018.8
20260905225516 76 302 9.0 14.0 0.00 0.00 0.00 35 1018.9
20260905225016 76 324 7.0 15.0 0.00 0.00 0.00 35 1018.9
20260905224555 76 278 7.0 15.0 0.00 0.00 0.00 35 1018.9
20260905224020 76 287 6.0 15.0 0.00 0.00 0.00 35 1018.8
20260905223519 76 298 9.0 15.0 0.00 0.00 0.00 35 1018.8